LFBOLFBZ

Guest
Details From LFBO - Toulouse Blagnac
To LFBZ - Biarritz Bayonne Anglet
Flight Number -
Tags Routegen
Created
Modified
Stats Distance 126 nm / 233 km
Max Altitude 0 ft / 0 m
Waypoints 2
Social Downloads 13
Likes 0
Share

Download

Looking for another format? Having issues loading an existing format? Contact us
Advertisement - Login to hide

Notes

None

Route

LFBO LFBZ

ID Type Via Altitude (ft/m) Position (lat/lon) Dist (leg/tot) Name
O LFBO APT - 0 / 0 43.64411 / 1.34593 - / 0 nm
O LFBZ APT - 0 / 0 43.46824 / -1.53723 125 / 125 nm

Altitude Profile

Advertisement - Login to hide

LFBO

Details ICAO LFBO (TLS)
Name Toulouse Blagnac
Region France
Timezone Europe/Paris (UTC+1.0)
Stats Elevation 499 ft / 152 m (AMSL)
Location 43.629000° 1.363970°
Runways 2
Magnetic Variation 1.170° E

METAR

LFBO 061230Z AUTO VRB02KT CAVOK 13/03 Q1016 NOSIG

Decode

TAF

TAF LFBO 061100Z 0612/0718 VRB03KT CAVOK BECMG 0623/0701 BKN045 BECMG 0713/0715 CAVOK

Decode

Departure Runways

ID Width Length Bearing (true/mag) Surface Threshold Overrun Markings Lighting
14L 148 ft / 45 m 9,923 ft / 3,025 m 143.00° / 141.83° ASPHALT 0 ft / 0 m 30 ft / 9 m PREC-APP CENTERLINE EDGE THRESHOLD ALSF-I REIL-OMNI
14R 148 ft / 45 m 11,484 ft / 3,500 m 142.99° / 141.82° ASPHALT 0 ft / 0 m 295 ft / 90 m PREC-APP CENTERLINE EDGE THRESHOLD ALSF-II TDZ REIL-OMNI
32L 148 ft / 45 m 11,484 ft / 3,500 m 323.01° / 321.84° ASPHALT 0 ft / 0 m 194 ft / 59 m PREC-APP CENTERLINE EDGE THRESHOLD REIL-OMNI
32R 148 ft / 45 m 9,923 ft / 3,025 m 323.02° / 321.85° ASPHALT 0 ft / 0 m 0 ft / 0 m PREC-APP CENTERLINE EDGE THRESHOLD REIL-OMNI

LFBZ

Details ICAO LFBZ (BIQ)
Name Biarritz-Anglet-Bayonne
Region France
Timezone Europe/Paris (UTC+1.0)
Stats Elevation 245 ft / 75 m (AMSL)
Location 43.468400° -1.523330°
Runways 1
Magnetic Variation 0.389° E

METAR

LFBZ 061230Z AUTO 02004KT 340V040 CAVOK 16/10 Q1015 NOSIG

Decode

TAF

TAF LFBZ 061100Z 0612/0712 12005KT CAVOK TEMPO 0620/0702 26010KT BKN010 TEMPO 0702/0708 4000 BR OVC004 TEMPO 0708/0712 BKN010

Decode

Destination Runways

ID Width Length Bearing (true/mag) Surface Threshold Overrun Markings Lighting
09 148 ft / 45 m 7,389 ft / 2,252 m 89.16° / 88.78° ASPHALT 686 ft / 209 m 0 ft / 0 m APP CENTERLINE EDGE THRESHOLD
27 148 ft / 45 m 7,389 ft / 2,252 m 269.18° / 268.79° ASPHALT 0 ft / 0 m 0 ft / 0 m PREC-APP CENTERLINE EDGE THRESHOLD

Approach Navaids

Runway Type Ident Frequency Range Bearing (true/mag) Slope Elevation
27 DME BZ 111.35 MHz 18 nm / 33 km - - 223 ft / 68 m (AMSL)
27 LOC-ILS BZ 111.35 MHz 18 nm / 33 km 269.17° / 268.78 ° - 245 ft / 75 m (AMSL)
27 GS BZ 111.35 MHz 10 nm / 19 km 269.17° / 268.78 ° 3.00° 245 ft / 75 m (AMSL)

Popular Alternatives